Regional Weather Roundup
Issued by NWS

Home | Current Version | Previous Version | Text Only | Print | Product List | Glossary On
Versions: 1 2 3 4 5 6 7 8 9 10 11 12 13 14 15 16 17 18 19 20 21 22 23 24 25 26 27 28 29 30 31 32 33 34 35 36 37 38 39 40 41 42 43 44 45 46 47 48 49 50
000
ASUS43 KFSD 171010
RWRSD

WEATHER ROUNDUP FOR SOUTH DAKOTA
NATIONAL WEATHER SERVICE SIOUX FALLS SD
400 AM CST WED JAN 17 2018

NOTE: "FAIR" INDICATES FEW OR NO CLOUDS BELOW 12,000 FEET WITH NO
SIGNIFICANT WEATHER AND/OR OBSTRUCTIONS TO VISIBILITY.


SDZ001>005-009-010-012>017-171100-
NORTHWEST AND NORTH CENTRAL SOUTH DAKOTA

CITY           SKY/WX    TMP DP  RH WIND       PRES   REMARKS
BUFFALO          N/A     17   3  54 W8        30.07R WCI   7
FAITH            N/A      5   0  79 W6        30.16S WCI  -6
MOBRIDGE       PTCLDY     4  -1  80 S5        30.19F WCI  -5
$$

SDZ012>016-024>037-041>051-057-063-072>074-171100-
SOUTHWEST AND SOUTH CENTRAL SOUTH DAKOTA

CITY           SKY/WX    TMP DP  RH WIND       PRES   REMARKS
RAPID CTY ARPT PTCLDY    17   0  47 E3        30.15R
PIERRE         CLEAR      3  -1  83 CALM      30.23F
CUSTER         PTCLDY    28  -8  20 W5        30.15R WCI  23
ELLSWORTH AFB  PTCLDY    20   3  48 N7        30.14R WCI  11
PHILIP         CLEAR      5   1  83 CALM      30.19F
PINE RIDGE     CLEAR     12   4  70 SW8       30.21F WCI   0
SPEARFISH        N/A     27   5  39 SW3       30.15R
WINNER         FAIR      19   6  57 SW18      30.26R WCI   4
$$

SDZ004>011-016>023-039-040-171100-
NORTHEAST SOUTH DAKOTA

CITY           SKY/WX    TMP DP  RH WIND       PRES   REMARKS
ABERDEEN       CLEAR      2  -3  80 S9        30.30F WCI -13
WATERTOWN      CLOUDY     4  -1  80 S10       30.29F WCI -11
BROOKINGS      CLOUDY     3  -2  79 S13       30.33F WCI -14
SISSETON         N/A     16   1  51 S5        30.25F WCI   9
$$

SDZ017-020-022-023-036>040-048>070-171100-
SOUTHEAST SOUTH DAKOTA

CITY           SKY/WX    TMP DP  RH WIND       PRES   REMARKS
SIOUX FALLS    CLOUDY     7   1  76 S10       30.39F WCI  -8
HURON          CLEAR      4  -2  76 S13       30.32F WCI -13
CHAMBERLAIN    CLEAR     10   4  75 S7        30.28F WCI  -1
MITCHELL       CLEAR      4  -2  76 SE7       30.37F WCI  -8
YANKTON        CLOUDY    10   2  69 S13       30.41F WCI  -5
$$

ABBREVIATIONS USED IN REMARKS
   TC - TEMPERATURE IN CELSIUS
  WCI - WIND CHILL INDEX
   HX - HEAT INDEX
  VSB - VISIBILITY




USA.gov is the U.S. government's official web portal to all federal, state and local government web resources and services.